Regional Weather Roundup
Issued by NWS

Home | Current Version | Previous Version | Graphics & Text | Print | Product List | Glossary On
Versions: 1 2 3 4 5 6 7 8 9 10 11 12 13 14 15 16 17 18 19 20 21 22 23 24 25 26 27 28
000
ASUS45 KCYS 291110
RWRWY

WYOMING REGIONAL WEATHER ROUNDUP
NATIONAL WEATHER SERVICE CHEYENNE WY
500 AM MDT FRI APR 29 2016

NOTE:  "FAIR" INDICATES FEW OR NO CLOUDS BELOW 12,000 FEET
WITH NO SIGNIFICANT WEATHER AND/OR OBSTRUCTIONS TO VISIBILITY.

WYZ001-291200-
YELLOWSTONE NATIONAL PARK

CITY           SKY/WX    TMP DP  RH WIND       PRES   REMARKS
LK YELLOWSTONE   N/A     24  20  84 CALM      29.94S
W YELLOWSTONE  NOT AVBL

$$
WYZ002>013-054>058-071-098>099-291200-
NORTHERN WYOMING

CITY           SKY/WX    TMP DP  RH WIND       PRES   REMARKS
JACKSON        CLOUDY    34  32  93 N9        29.92S WCI  26
CODY           CLOUDY    34  30  86 CALM      29.98F
GREYBULL       CLOUDY    41  29  62 E5        29.98F
WORLAND        CLOUDY    39  30  70 SE8       29.99F WCI  33
SHERIDAN       CLOUDY    37  32  82 SE5       30.03F WCI  33
BUFFALO          N/A    N/A N/A N/A MISG      30.03F
GILLETTE       CLOUDY    35  33  92 SE3       30.04F
HULETT         CLOUDY    36  34  93 CALM      30.08F
NEWCASTLE      CLOUDY    34  34 100 SE3       30.07F

$$
WYZ014>020-022>026-101>103-291200-
CENTRAL WYOMING

CITY           SKY/WX    TMP DP  RH WIND       PRES   REMARKS
BIG PINEY      CLOUDY    29  24  82 S8        29.96R WCI  21
PINEDALE       CLOUDY    30  28  93 CALM      29.97R
DUBOIS         CLOUDY    25  25 100 SE9       29.95S WCI  15
LANDER         CLOUDY    33  27  78 CALM      29.99R
RIVERTON       CLOUDY    33  27  78 NE6       30.01R WCI  28
CASPER         CLOUDY    33  29  85 E12       30.00S WCI  24
DOUGLAS        CLOUDY    34  32  92 SE12      30.04F WCI  25

$$
WYZ021-027>030-104>119-291200-
SOUTHERN WYOMING

CITY           SKY/WX    TMP DP  RH WIND       PRES   REMARKS
EVANSTON       CLOUDY    31  27  85 NE10      29.90S WCI  22
FORT BRIDGER   CLOUDY    30  30 100 E12       29.94F WCI  21
ROCK SPRINGS   LGT SNOW  30  26  85 NE14      29.93F FOG     WCI  19
DIXON          LGT RAIN  35  33  92 NW3       29.88F
RAWLINS        CLOUDY    31  27  85 NE15      29.93S WCI  20
SARATOGA       CLOUDY    28  28 100 W3        29.92R
LARAMIE        CLOUDY    30  27  88 SE21      29.96S WCI  17
CHEYENNE       CLOUDY    32  31  96 SE12      30.01F FOG     WCI  23
TORRINGTON     CLOUDY    34  32  92 E12       30.08R WCI  25
PINE BLUFFS    CLOUDY    32  32 100 E5        30.07S FOG     WCI  27

$$




USA.gov is the U.S. government's official web portal to all federal, state and local government web resources and services.